Date,TemperatureHighF,TemperatureAvgF,TemperatureLowF,DewpointHighF,DewpointAvgF,DewpointLowF,HumidityHigh,HumidityAvg,HumidityLow,PressureMaxIn,PressureMinIn,WindSpeedMaxMPH,WindSpeedAvgMPH,GustSpeedMaxMPH,PrecipitationSumIn
2013-1-1,96,81,73,70,64,58,77,59,29,29.62,29.44,14,3,14,0.00
2013-1-2,76,72,68,68,63,58,86,75,65,29.79,29.47,14,4,14,0.00
2013-1-3,78,71,67,63,60,56,75,68,57,29.82,29.74,12,2,12,0.00
2013-1-4,83,75,67,66,62,59,80,65,52,29.76,29.65,11,2,11,0.00
2013-1-5,90,78,67,67,63,60,78,62,43,29.76,29.65,10,2,10,0.00
2013-1-6,85,76,69,68,65,62,81,68,52,29.91,29.76,11,2,11,0.00
2013-1-7,84,76,71,70,66,62,88,73,60,29.91,29.68,13,2,13,0.00
2013-1-8,105,88,70,63,58,46,75,42,21,29.65,29.14,26,7,26,0.00
2013-1-9,91,77,69,64,56,46,68,52,22,29.47,29.06,26,6,26,0.00
2013-1-10,73,70,68,62,59,57,73,68,64,29.59,29.47,7,1,7,0.00
2013-1-11,93,85,69,70,67,62,81,56,43,29.59,29.38,12,2,12,0.00
2013-1-12,108,85,72,69,65,61,77,54,23,29.62,29.38,27,4,27,0.00
2013-1-13,84,74,67,70,66,63,97,78,62,29.62,29.44,12,3,12,0.08
2013-1-14,74,68,64,66,59,50,95,74,47,29.85,29.56,15,4,15,0.17
2013-1-15,79,70,62,62,60,54,94,71,48,29.85,29.71,14,2,14,0.00
2013-1-16,86,73,65,66,60,56,81,67,41,29.71,29.56,9,1,9,0.00
2013-1-17,87,79,71,72,68,64,88,71,53,29.62,29.41,10,2,10,0.00
2013-1-18,112,89,74,72,66,58,87,54,21,29.47,29.17,22,4,22,0.13
2013-1-19,75,72,67,65,62,58,93,72,64,29.74,29.47,18,4,18,0.12
2013-1-20,71,69,67,68,66,64,96,92,89,29.76,29.68,6,1,6,0.99
2013-1-21,82,74,69,72,68,65,95,82,62,29.74,29.59,13,1,13,0.00
2013-1-22,94,77,68,73,68,65,91,77,50,29.59,29.44,10,2,10,0.09
2013-1-23,73,71,69,68,67,65,92,85,78,29.76,29.59,13,4,13,0.00
2013-1-24,82,73,68,71,68,66,93,85,67,29.76,29.65,14,3,14,0.00
2013-1-25,86,77,69,75,70,68,95,81,62,29.68,29.53,10,2,10,0.00
2013-1-26,86,78,72,77,71,69,89,79,60,29.62,29.53,15,2,15,0.37
2013-1-27,75,72,70,72,70,68,97,91,83,29.56,29.50,10,1,10,1.50
2013-1-28,71,70,68,70,69,67,98,97,95,29.53,29.35,23,3,23,4.35
2013-1-29,84,72,68,77,70,64,98,95,71,29.56,29.26,14,3,14,0.37
2013-1-30,77,71,68,69,67,66,95,87,72,29.71,29.56,9,2,9,0.37
2013-1-31,89,78,70,74,70,68,92,78,56,29.71,29.44,8,2,8,0.37
2013-2-1,86,72,65,73,67,63,98,87,63,29.47,29.38,18,4,18,0.75
2013-2-2,68,63,61,64,60,54,98,89,70,29.68,29.44,20,5,20,0.83
2013-2-3,77,67,60,60,56,52,79,68,49,29.79,29.62,15,5,15,0.37
2013-2-4,78,69,64,64,61,55,88,75,49,29.97,29.79,14,3,14,0.37
2013-2-5,78,70,65,65,62,60,87,75,57,29.97,29.88,13,2,13,0.37
2013-2-6,80,72,65,64,60,53,88,68,46,29.91,29.76,10,2,10,0.37
2013-2-7,83,73,64,64,60,57,78,64,47,29.82,29.71,12,2,12,0.37
2013-2-8,89,75,65,66,62,58,80,66,44,29.82,29.71,8,2,8,0.00
2013-2-9,91,83,75,70,67,63,72,59,42,29.76,29.59,10,2,10,0.37
2013-2-10,88,76,69,73,68,65,89,76,52,29.82,29.62,18,3,18,0.37
2013-2-11,70,69,68,67,66,64,95,91,85,29.82,29.76,13,3,13,0.79
2013-2-12,75,70,68,69,67,62,98,90,73,29.85,29.76,18,2,18,0.79
2013-2-13,77,71,68,60,58,56,70,64,51,29.91,29.88,10,1,10,0.79
2013-2-14,80,71,63,65,60,56,85,71,50,29.91,29.82,10,1,10,0.79
2013-2-15,78,72,67,68,64,62,91,77,64,29.91,29.82,7,1,7,0.00
2013-2-16,80,70,66,67,63,60,89,79,54,29.91,29.82,11,1,11,0.12
2013-2-17,75,69,65,68,62,58,92,79,62,29.91,29.82,10,1,10,0.04
2013-2-18,80,71,65,67,63,59,87,76,54,29.85,29.74,12,2,12,0.04
2013-2-19,83,73,66,70,65,62,90,78,60,29.76,29.62,10,1,10,0.04
2013-2-20,80,73,68,71,67,64,95,84,63,29.79,29.68,12,2,12,0.09
2013-2-21,79,71,67,70,67,64,98,89,65,29.79,29.74,16,2,16,0.12
2013-2-22,75,69,65,70,66,63,98,92,76,29.79,29.71,20,3,20,0.21
2013-2-23,73,70,67,72,69,66,98,98,98,29.71,29.44,20,5,20,1.86
2013-2-24,90,74,70,78,72,70,98,94,65,29.71,29.53,14,2,14,0.00
2013-2-25,88,78,71,75,71,68,94,80,62,29.79,29.68,11,2,11,0.00
2013-2-26,81,74,70,71,68,64,91,80,68,29.79,29.71,10,2,10,0.00
2013-2-27,88,76,69,70,66,64,85,72,48,29.76,29.56,13,3,13,0.00
2013-2-28,90,75,66,71,66,62,92,75,51,29.62,29.44,13,4,13,0.71
2013-3-1,68,65,63,67,64,62,98,97,92,29.76,29.50,19,6,19,2.78
2013-3-2,66,64,62,65,63,61,98,98,98,29.88,29.76,20,5,20,0.83
2013-3-3,75,69,65,66,64,61,98,85,68,29.88,29.79,15,3,15,0.00
2013-3-4,78,70,65,65,63,60,93,78,57,29.91,29.82,17,2,17,0.00
2013-3-5,79,72,67,65,62,59,84,73,53,29.91,29.82,13,2,13,0.00
2013-3-6,80,73,69,66,63,59,83,72,52,29.88,29.76,12,2,12,0.00
2013-3-7,82,72,65,67,62,59,90,72,53,29.88,29.74,10,2,10,0.00
2013-3-8,80,72,66,67,62,60,86,73,52,29.91,29.82,10,1,10,0.00
2013-3-9,79,73,69,67,63,59,81,72,55,29.91,29.79,9,2,9,0.00
2013-3-10,81,72,66,66,63,61,88,74,55,29.85,29.76,9,2,9,0.00
2013-3-11,80,72,67,68,64,62,88,75,55,29.88,29.79,10,1,10,0.00
2013-3-12,80,72,67,67,63,60,89,74,52,29.88,29.76,7,1,7,0.00
2013-3-13,83,72,65,67,62,60,88,73,53,29.79,29.56,10,2,10,0.00
2013-3-14,81,70,65,67,62,59,86,75,50,29.68,29.56,10,2,10,0.00
2013-3-15,73,70,69,70,67,66,94,90,88,29.76,29.68,10,2,10,0.20
2013-3-16,88,74,67,71,68,65,96,83,55,29.74,29.50,8,2,8,0.00
2013-3-17,74,70,64,68,57,47,91,66,42,29.82,29.47,20,4,20,0.00
2013-3-18,72,64,61,59,56,52,90,77,54,29.94,29.79,15,3,15,0.00
2013-3-19,74,66,60,61,57,54,88,74,51,30.03,29.91,10,1,10,0.00
2013-3-20,76,68,61,64,60,57,91,76,55,30.03,29.88,11,1,11,0.00
2013-3-21,84,71,61,64,60,56,83,69,43,29.91,29.68,10,2,10,0.00
2013-3-22,91,78,68,67,63,61,81,62,44,29.71,29.62,20,6,20,0.00
2013-3-23,92,79,74,68,62,58,79,59,40,29.76,29.62,18,3,18,0.00
2013-3-24,90,74,70,72,67,62,88,80,39,29.74,29.56,10,1,10,0.00
2013-3-25,81,74,70,69,65,57,90,74,61,29.82,29.68,9,2,9,0.00
2013-3-26,86,76,70,72,68,65,93,79,60,29.82,29.71,8,1,8,0.00
2013-3-27,91,76,68,72,67,64,89,73,47,29.82,29.71,8,2,8,0.00
2013-3-28,92,78,68,70,65,62,82,65,40,29.79,29.59,14,3,14,0.09
2013-3-29,73,67,62,66,55,48,83,65,55,29.82,29.65,12,3,12,0.08
2013-3-30,76,66,59,59,55,52,80,68,51,29.82,29.62,8,1,8,0.00
2013-3-31,78,69,65,60,58,54,80,68,48,29.74,29.53,10,2,10,0.00
2013-4-1,78,68,62,64,60,58,94,78,59,29.79,29.71,8,2,8,0.12
2013-4-2,80,68,62,61,58,53,89,74,44,29.76,29.65,6,1,6,0.00
2013-4-3,66,64,63,65,62,60,98,93,89,29.97,29.79,10,2,10,6.55
2013-4-4,66,62,61,63,60,59,96,93,83,30.12,29.97,13,2,13,0.92
2013-4-5,72,66,61,63,58,54,97,78,56,30.15,30.06,8,1,8,0.54
2013-4-6,72,66,61,63,59,56,87,80,69,30.09,29.94,8,1,8,0.54
2013-4-7,75,65,60,64,59,57,94,82,64,30.00,29.88,8,1,8,0.54
2013-4-8,73,66,60,64,58,56,92,78,60,30.00,29.94,8,1,8,0.00
2013-4-9,73,64,61,64,60,58,94,87,71,30.03,29.94,7,1,7,0.54
2013-4-10,73,65,59,67,59,57,97,82,61,30.00,29.88,6,1,6,0.54
2013-4-11,62,60,60,56,56,55,87,85,83,29.91,29.91,2,0,2,0.00
2013-4-12,75,70,63,66,60,56,90,70,58,30.03,29.91,9,2,9,0.00
2013-4-13,77,68,61,63,59,56,87,75,59,29.91,29.74,6,1,6,0.00
2013-4-14,79,69,61,66,60,57,89,75,56,29.74,29.59,6,1,6,0.00
2013-4-15,84,70,62,63,59,56,85,70,46,29.59,29.47,10,2,10,0.00
2013-4-16,71,66,64,63,61,59,91,84,72,29.71,29.56,11,3,11,0.12
2013-4-17,71,65,60,64,60,57,92,83,69,29.76,29.65,9,2,9,0.04
2013-4-18,74,66,61,63,60,58,92,81,62,29.71,29.59,7,1,7,0.00
2013-4-19,68,63,60,57,49,40,86,63,45,29.71,29.62,15,4,15,0.00
2013-4-20,61,58,58,60,52,39,98,82,49,29.74,29.59,19,4,19,1.87
2013-4-21,69,59,54,54,52,50,89,78,56,29.76,29.65,10,2,10,0.00
2013-4-22,66,58,57,57,54,52,88,84,73,29.65,29.56,7,1,7,0.00
2013-4-27,72,71,68,55,54,53,62,55,50,29.79,29.79,6,1,6,0.00
2013-4-28,80,75,66,53,48,45,48,40,34,29.88,29.76,13,3,13,0.00
2013-4-29,79,68,63,63,50,40,82,54,35,29.94,29.82,7,2,7,0.00
2013-4-30,74,68,66,66,64,62,90,85,76,30.00,29.91,9,2,9,0.00
2013-5-1,82,70,64,64,61,54,92,75,44,29.88,29.65,10,3,10,0.00
2013-5-2,67,63,59,59,50,46,76,63,50,30.06,29.79,15,4,15,0.00
2013-5-3,71,62,55,54,50,48,80,66,47,30.06,29.85,8,2,8,0.00
2013-5-4,73,64,58,57,48,45,71,57,43,29.97,29.76,18,4,18,0.00
2013-5-5,62,59,57,48,45,44,66,60,54,30.00,29.91,10,3,10,0.00
2013-5-6,66,59,54,56,50,45,88,72,62,30.06,29.97,11,3,11,0.04
2013-5-7,68,61,57,59,55,53,88,81,69,30.12,30.03,6,1,6,0.04
2013-5-8,68,62,58,61,57,55,93,83,65,30.15,30.06,6,1,6,0.00
2013-5-9,72,62,56,60,56,53,92,79,61,30.15,30.06,6,1,6,0.00
2013-5-10,70,62,56,58,54,51,87,77,54,30.15,30.06,6,1,6,0.00
2013-5-11,69,64,61,63,59,57,91,84,74,30.15,30.03,6,2,6,0.00
2013-5-12,70,63,57,60,57,54,93,81,65,30.06,29.91,6,1,6,0.00
2013-5-13,70,62,57,58,56,54,90,79,62,29.91,29.68,8,2,8,0.00
2013-5-14,66,62,58,58,56,52,89,83,74,29.68,29.59,12,2,12,0.09
2013-5-15,67,58,50,48,44,41,78,61,48,29.74,29.56,14,5,14,0.00
2013-5-16,69,62,58,48,44,42,58,52,44,29.65,29.50,18,7,18,0.00
2013-5-17,57,55,54,44,43,42,66,63,59,29.62,29.62,11,6,11,0.00
2013-5-19,64,60,52,41,39,36,57,46,42,29.79,29.74,10,4,10,0.00
2013-5-20,64,56,50,42,38,33,56,50,41,29.85,29.74,10,4,10,0.00
2013-5-21,70,60,52,47,41,38,58,50,41,29.79,29.65,13,4,13,0.00
2013-5-22,63,59,55,52,46,40,82,63,53,29.74,29.56,8,1,8,0.20
2013-5-23,62,56,53,58,54,49,98,91,77,29.71,29.56,20,3,20,2.32
2013-5-24,65,60,57,57,54,48,98,81,58,29.85,29.71,23,4,23,0.29
2013-5-25,66,59,54,55,52,50,90,79,64,29.97,29.85,10,3,10,0.04
2013-5-26,66,57,50,50,47,43,84,69,45,30.03,29.94,8,2,8,0.00
2013-5-27,60,56,52,57,51,45,93,83,75,30.15,30.00,5,1,5,0.30
2013-5-28,66,60,56,62,57,54,95,89,79,30.24,30.15,6,1,6,0.04
2013-5-29,68,61,56,58,55,53,92,81,66,30.18,30.09,8,2,8,0.00
2013-5-30,69,60,53,56,53,50,90,79,59,30.15,30.03,9,2,9,0.00
2013-5-31,70,62,55,57,54,50,86,77,59,30.12,29.97,8,3,8,0.00
2013-6-1,68,61,57,56,54,52,86,78,66,29.94,29.71,15,3,15,0.00
2013-6-2,61,57,54,58,54,48,93,89,75,29.74,29.44,25,5,25,0.62
2013-6-3,62,56,53,51,45,42,89,66,55,29.91,29.74,17,4,17,0.00
2013-6-4,65,57,51,53,47,42,79,70,59,30.03,29.94,8,2,8,0.00
2013-6-5,66,58,54,55,52,50,84,79,67,30.03,29.94,1,0,1,0.00
2013-6-6,65,59,56,54,51,48,85,75,63,29.97,29.88,10,1,10,0.00
2013-6-7,69,64,60,59,56,50,79,75,68,29.97,29.79,18,5,18,0.00
2013-6-8,64,60,58,57,53,48,92,78,67,30.18,30.03,8,1,8,0.04
2013-6-9,66,58,53,57,52,48,88,80,70,30.12,29.94,6,1,6,0.00
2013-6-10,68,59,53,58,54,50,91,84,69,29.94,29.79,10,3,10,0.00
2013-6-11,67,60,55,55,52,50,86,77,60,29.91,29.79,8,2,8,0.00
2013-6-12,65,57,54,60,54,51,93,89,79,29.79,29.65,10,1,10,0.05
2013-6-14,64,60,54,51,48,45,81,65,59,29.50,29.41,20,8,20,0.05
2013-6-15,59,55,55,46,46,41,73,72,51,29.68,29.47,15,6,15,0.00
2013-6-16,61,57,52,44,42,38,62,57,50,29.74,29.62,11,3,11,0.00
2013-6-17,61,54,48,46,42,37,67,62,56,29.59,29.53,11,4,11,0.00
2013-6-18,56,55,54,46,45,43,70,68,65,29.74,29.71,8,4,8,0.00
2013-6-19,58,52,50,49,46,43,84,78,68,29.91,29.76,17,5,17,0.24
2013-6-20,53,53,53,47,47,47,79,79,78,29.91,29.91,5,3,5,0.24
2013-6-21,60,54,50,50,47,44,83,78,70,29.91,29.85,8,2,8,0.24
2013-6-22,60,53,49,50,47,44,89,81,69,30.06,29.91,10,3,10,0.24
2013-6-23,61,55,52,56,53,49,95,92,83,30.12,30.00,10,2,10,0.83
2013-6-24,61,55,52,53,51,47,94,86,67,29.97,29.76,7,2,7,0.00
2013-6-25,58,52,48,50,46,44,85,81,71,29.79,29.71,8,2,8,0.00
2013-6-26,63,58,50,60,55,46,98,91,75,29.88,29.76,17,3,17,0.16
2013-6-27,60,58,57,60,58,56,98,97,94,29.94,29.88,9,1,9,1.29
2013-6-28,62,57,56,61,56,55,98,97,88,29.97,29.91,7,1,7,0.17
2013-6-29,61,57,56,59,57,56,98,97,91,30.00,29.91,10,1,10,0.29
2013-6-30,58,56,55,57,56,54,98,98,98,30.00,29.94,13,3,13,0.54
2013-7-1,61,56,54,59,55,53,98,97,91,30.00,29.91,8,2,8,0.16
2013-7-2,62,54,52,54,50,47,96,88,72,30.00,29.91,6,2,6,0.00
2013-7-3,63,56,50,55,51,48,96,85,67,30.03,29.91,8,1,8,0.00
2013-7-4,68,57,49,54,49,45,92,76,53,29.88,29.65,26,5,26,0.00
2013-7-5,68,60,56,50,47,36,77,64,44,29.79,29.59,20,6,20,0.00
2013-7-6,60,54,47,39,34,30,56,48,44,29.97,29.82,14,5,14,0.00
2013-7-7,52,48,45,37,32,31,60,53,50,30.12,30.00,10,4,10,0.00
2013-7-9,55,53,51,50,48,37,89,84,56,30.30,30.12,8,2,8,0.46
2013-7-10,59,54,50,54,50,46,90,86,79,30.30,30.21,6,1,6,0.00
2013-7-11,61,54,49,54,50,47,93,87,74,30.30,30.21,6,1,6,0.00
2013-7-12,61,52,49,53,50,47,93,90,74,30.24,30.06,6,1,6,0.00
2013-7-13,64,56,50,56,52,47,93,87,72,30.15,30.06,6,1,6,0.00
2013-7-14,64,55,51,57,52,49,95,88,67,30.12,30.03,6,0,6,0.00
2013-7-15,65,59,55,57,54,51,91,84,73,30.03,29.94,7,2,7,0.00
2013-7-16,68,61,58,58,54,52,84,79,63,30.03,29.94,10,3,11,0.00
2013-7-17,71,63,57,57,54,52,85,74,57,30.00,29.82,12,2,12,0.00
2013-7-18,70,62,55,59,55,51,87,79,63,29.97,29.85,8,2,8,0.00
2013-7-19,66,59,57,57,55,53,88,86,73,29.82,29.68,8,2,8,0.04
2013-7-20,59,58,57,56,54,40,90,86,50,29.65,29.56,14,4,14,0.00
2013-7-21,60,54,47,39,36,31,65,52,41,29.82,29.62,19,6,19,0.00
2013-7-22,54,47,46,33,32,30,58,55,43,29.91,29.85,12,5,12,0.00
2013-7-23,62,54,47,40,35,31,55,49,44,29.94,29.79,13,4,13,0.00
2013-7-24,62,56,52,45,40,36,57,54,50,30.12,29.94,15,5,15,0.00
2013-7-25,64,56,52,44,42,38,65,58,46,30.15,30.03,6,2,6,0.00
2013-7-26,64,56,49,45,41,35,72,59,45,30.09,29.94,9,4,9,0.00
2013-7-27,64,55,49,51,46,38,81,70,60,30.18,30.09,4,0,4,0.00
2013-7-28,65,56,48,53,49,44,87,79,64,30.18,30.03,6,2,6,0.00
2013-7-29,70,60,52,54,50,47,86,71,48,30.06,29.88,5,2,5,0.00
2013-7-30,70,60,53,54,48,42,82,64,47,29.91,29.79,8,2,8,0.00
2013-7-31,62,58,56,56,52,48,92,81,68,29.97,29.88,13,4,13,0.54
2013-8-1,64,56,51,52,49,46,84,77,61,29.97,29.82,10,2,10,0.00
2013-8-2,68,58,50,54,48,40,90,72,48,29.88,29.59,13,3,13,0.00
2013-8-3,66,58,52,44,40,37,59,52,43,29.79,29.56,13,6,13,0.00
2013-8-4,66,57,51,44,39,35,61,50,40,29.79,29.56,19,7,19,0.00
2013-8-5,66,54,49,43,36,33,58,52,43,29.85,29.65,16,6,16,0.00
2013-8-6,71,61,52,43,39,35,55,45,34,29.79,29.47,24,6,24,0.00
2013-8-7,63,58,54,48,43,37,76,58,42,29.68,29.53,7,1,7,0.25
2013-8-8,57,53,51,49,45,40,86,74,54,29.74,29.47,24,5,24,0.09
2013-8-9,66,58,50,45,42,38,67,55,45,29.85,29.68,12,4,12,0.00
2013-8-10,72,62,55,45,40,36,50,45,37,29.79,29.59,17,5,17,0.00
2013-8-11,70,60,51,46,41,36,59,49,37,29.82,29.59,6,2,6,0.00
2013-8-12,79,64,54,49,42,39,60,46,31,29.65,29.29,28,6,28,0.00
2013-8-13,69,59,50,40,35,29,51,41,33,29.76,29.56,18,5,18,0.00
2013-8-14,70,59,54,40,34,31,44,39,32,29.74,29.56,15,5,15,0.00
2013-8-15,62,58,53,34,32,30,48,37,34,29.94,29.56,14,4,14,0.00
2013-8-16,69,55,48,46,35,31,63,46,36,29.97,29.74,8,3,8,0.00
2013-8-17,73,62,53,50,46,38,71,57,41,29.71,29.41,25,5,25,0.00
2013-8-18,72,61,52,42,36,31,49,40,33,29.82,29.65,14,5,14,0.00
2013-8-19,72,62,56,41,35,31,39,36,33,29.68,29.47,18,7,18,0.00
2013-8-20,64,57,48,35,31,25,45,37,34,29.76,29.59,16,5,16,0.00
2013-8-21,61,48,44,36,27,24,49,44,40,29.79,29.71,11,6,11,0.00
2013-8-22,63,60,55,36,34,33,44,37,36,29.68,29.62,12,6,13,0.00
2013-8-23,69,61,55,42,37,34,47,42,36,29.71,29.53,17,7,17,0.00
2013-8-24,70,61,55,47,43,38,65,53,41,29.94,29.74,13,5,13,0.00
2013-8-25,75,62,51,51,45,39,74,56,34,30.03,29.85,15,3,15,0.00
2013-8-26,73,61,53,50,44,38,68,54,38,30.00,29.85,8,2,8,0.00
2013-8-27,72,61,53,49,47,44,75,62,41,29.94,29.79,8,1,8,0.00
2013-8-28,72,61,53,54,48,44,81,65,41,29.94,29.82,9,1,9,0.00
2013-8-29,71,62,54,58,53,50,86,72,53,30.00,29.82,11,1,11,0.00
2013-8-30,82,77,62,59,55,49,77,47,35,29.82,29.62,18,7,18,0.00
2013-9-1,63,62,61,54,53,52,75,73,71,30.12,30.06,0,0,0,0.00
2013-9-2,74,63,56,59,52,50,85,69,47,30.18,30.09,9,1,9,0.00
2013-9-3,72,63,55,60,53,50,88,73,53,30.27,30.15,6,0,6,0.00
2013-9-4,74,63,54,57,52,49,83,69,47,30.24,30.09,7,1,7,0.00
2013-9-5,82,68,55,56,50,-10,80,57,34,30.12,29.94,15,3,15,0.00
2013-9-6,77,69,63,60,52,44,77,55,42,30.06,29.91,8,2,8,0.00
2013-9-7,85,79,67,60,51,48,77,39,30,29.97,29.79,13,5,13,0.00
2013-9-11,79,72,66,48,42,35,52,34,27,29.68,29.50,8,2,8,0.00
2013-9-12,77,64,57,50,40,36,67,42,31,29.76,29.59,11,2,11,0.00
2013-9-13,66,59,53,51,44,41,66,59,48,29.91,29.79,10,3,10,0.00
2013-9-14,78,65,58,58,54,48,88,68,43,29.74,29.44,13,3,13,0.33
2013-9-15,68,62,57,56,52,50,80,71,58,29.82,29.71,12,2,12,0.00
2013-9-16,67,62,57,60,54,49,92,77,66,29.79,29.44,12,2,12,0.04
2013-9-17,73,68,63,59,53,50,68,60,53,29.35,29.29,22,7,22,0.04
2013-9-18,77,67,59,56,50,41,77,56,33,29.41,29.32,23,7,23,0.04
2013-9-19,77,67,58,45,41,34,53,39,31,29.53,29.35,18,6,18,0.04
2013-9-20,75,64,55,44,38,34,48,39,30,29.65,29.44,17,6,17,0.04
2013-9-21,72,61,53,44,40,34,56,45,35,29.74,29.62,11,3,11,0.00
2013-9-22,79,64,53,52,48,43,70,58,35,29.74,29.62,9,1,9,0.00
2013-9-23,88,71,58,53,48,44,66,48,24,29.68,29.44,10,4,10,0.00
2013-9-24,85,72,67,51,43,38,39,35,30,29.50,29.29,10,2,10,0.00
2013-9-25,92,75,64,52,45,38,41,35,23,29.59,29.44,7,3,8,0.00
2013-9-26,94,77,65,54,43,30,45,32,19,29.71,29.29,35,5,35,0.00
2013-9-27,76,65,56,42,35,28,45,34,27,29.88,29.74,9,2,9,0.00
2013-9-28,88,71,56,49,42,31,66,39,19,29.68,29.44,17,4,17,0.00
2013-9-29,80,67,59,47,39,31,55,36,28,29.79,29.65,6,2,6,0.04
2013-9-30,88,71,56,51,46,42,66,44,21,29.79,29.56,12,4,12,0.04
2013-10-1,88,71,65,57,46,38,59,42,29,29.62,29.35,18,5,18,0.08
2013-10-2,80,68,56,46,42,38,54,39,25,29.76,29.50,13,4,13,0.04
2013-10-3,72,62,55,48,40,34,72,45,32,29.85,29.47,18,4,18,0.17
2013-10-4,71,59,51,51,43,38,69,54,38,29.91,29.82,14,3,14,0.04
2013-10-5,86,68,53,52,47,37,73,50,26,29.85,29.56,15,4,15,0.04
2013-10-6,93,70,61,51,41,36,43,36,19,29.62,29.35,15,4,15,0.04
2013-10-7,75,67,63,53,46,33,63,48,23,29.68,29.38,13,4,13,0.00
2013-10-8,74,64,58,52,49,47,70,60,44,29.85,29.62,11,1,11,0.00
2013-10-9,87,69,54,53,47,38,75,51,24,29.88,29.62,12,3,12,0.00
2013-10-10,94,80,66,47,41,36,34,26,18,29.68,29.35,26,8,26,0.00
2013-10-11,81,69,64,60,52,38,84,57,22,29.74,29.32,19,3,19,0.04
2013-10-12,88,71,58,61,56,51,80,62,36,29.76,29.47,10,1,10,0.00
2013-10-13,95,81,68,58,50,39,71,41,17,29.47,29.12,30,9,30,0.00
2013-10-14,70,62,59,59,47,40,80,59,39,29.85,29.38,13,4,13,0.46
2013-10-15,80,64,52,46,39,33,50,41,26,29.94,29.79,23,3,23,0.46
2013-10-16,87,70,56,48,41,35,48,36,21,29.85,29.62,13,4,13,0.46
2013-10-17,94,76,61,54,42,32,44,30,18,29.71,29.35,33,7,33,0.46
2013-10-18,70,64,59,45,37,26,51,38,24,30.06,29.76,13,3,13,0.46
2013-10-19,77,65,55,55,46,42,64,52,33,30.09,29.94,10,2,10,0.46
2013-10-20,89,71,60,61,56,53,78,61,37,29.94,29.71,10,2,10,0.46
2013-10-23,98,89,71,62,52,39,59,31,19,29.56,29.32,27,8,27,0.39
2013-10-24,87,72,63,53,44,30,56,37,21,29.85,29.56,17,4,17,0.39
2013-10-25,76,64,55,46,38,30,52,39,29,29.94,29.79,10,2,10,0.39
2013-10-26,75,64,58,52,45,38,66,50,31,29.91,29.79,15,2,15,0.39
2013-10-27,77,66,58,54,51,49,72,60,39,29.94,29.82,12,1,12,0.00
2013-10-28,83,69,63,58,56,53,78,63,43,29.91,29.62,10,2,10,0.39
2013-10-29,87,67,60,62,56,52,98,71,36,29.74,29.38,24,4,24,1.33
2013-10-30,71,63,58,56,52,47,87,68,44,29.85,29.71,13,3,13,0.39
2013-10-31,75,64,55,56,52,49,83,66,41,29.91,29.79,8,1,8,0.39
2013-11-1,76,67,62,58,56,54,82,68,49,29.97,29.82,12,2,12,0.39
2013-11-2,64,61,60,58,55,54,83,79,73,29.85,29.79,8,1,8,0.00
2013-11-3,74,66,62,57,52,48,71,61,54,29.82,29.50,19,5,19,0.00
2013-11-4,67,62,60,47,42,37,59,48,35,29.91,29.79,18,4,18,0.00
2013-11-6,75,69,63,52,50,48,65,52,40,29.97,29.79,10,2,10,0.00
2013-11-7,88,70,57,59,54,49,76,57,36,29.82,29.59,9,1,9,0.00
2013-11-8,99,80,66,58,53,48,61,41,24,29.65,29.38,11,3,11,0.00
2013-11-9,100,77,65,65,56,50,79,51,20,29.68,29.35,23,5,23,0.04
2013-11-10,72,65,60,61,55,51,98,72,53,29.79,29.68,17,4,17,0.50
2013-11-11,66,62,60,64,61,60,98,98,92,29.79,29.68,12,2,12,1.45
2013-11-12,74,65,62,65,62,59,95,90,67,29.68,29.56,7,1,7,0.12
2013-11-13,86,70,60,64,58,49,94,69,33,29.71,29.56,9,2,9,0.00
2013-11-14,82,70,63,61,52,48,79,55,36,29.71,29.56,8,2,8,0.00
2013-11-15,78,68,63,62,57,52,89,67,43,29.71,29.65,12,2,12,0.04
2013-11-16,70,64,59,62,57,53,97,77,58,29.71,29.65,13,3,13,0.38
2013-11-17,61,60,58,60,58,56,98,92,83,29.71,29.65,14,4,14,100.73
2013-11-18,70,64,60,68,61,57,98,91,71,29.65,29.47,17,5,21,2.24
2013-11-19,72,67,64,63,62,61,92,85,71,29.59,29.53,6,1,6,2.24
2013-11-20,79,69,61,66,62,59,94,79,55,29.62,29.56,9,1,9,2.24
2013-11-21,81,71,64,66,63,60,95,76,54,29.62,29.50,11,2,11,0.04
2013-11-22,74,68,66,67,64,61,98,85,73,29.62,29.44,17,4,17,2.24
2013-11-23,73,66,64,68,63,60,96,92,74,29.47,29.32,13,2,13,0.46
2013-11-24,76,67,61,62,58,52,93,74,46,29.53,29.35,10,2,10,0.00
2013-11-25,75,65,61,63,57,48,89,75,57,29.68,29.47,20,2,20,0.17
2013-11-26,73,64,58,53,50,47,74,60,42,29.79,29.65,13,3,13,0.00
2013-11-27,78,67,58,55,52,49,72,59,40,29.79,29.68,6,1,6,0.00
2013-11-28,91,74,60,63,58,53,81,60,35,29.74,29.35,7,1,7,0.00
2013-11-29,70,65,60,66,62,56,98,88,80,29.68,29.44,12,3,12,0.67
2013-11-30,69,61,58,60,57,54,94,87,68,29.79,29.68,7,2,7,0.08
2013-12-1,75,68,59,59,54,51,83,61,47,30.00,29.94,11,2,11,0.08
2013-12-2,77,68,60,56,53,50,79,60,43,29.97,29.79,11,1,11,0.08
2013-12-3,80,66,59,58,54,52,81,66,41,29.82,29.62,7,1,7,0.00
2013-12-4,94,76,60,63,57,52,82,56,29,29.62,29.20,9,2,9,0.00
2013-12-5,86,73,60,68,53,34,90,52,26,29.50,29.12,15,4,15,0.04
2013-12-6,75,64,56,44,40,36,52,42,31,29.79,29.50,15,4,15,0.00
2013-12-7,79,67,57,57,50,43,72,55,36,29.88,29.76,8,1,8,0.00
2013-12-8,83,72,60,59,54,50,78,56,39,29.85,29.59,8,1,8,0.00
2013-12-9,99,80,66,61,56,52,66,47,23,29.62,29.32,10,2,10,0.13
2013-12-10,97,83,73,62,56,53,68,42,26,29.47,29.29,24,5,26,0.00
2013-12-11,83,74,68,67,62,58,92,68,47,29.56,29.38,6,2,6,0.00
2013-12-12,81,70,66,65,62,57,88,77,50,29.59,29.53,10,1,10,0.00
2013-12-13,86,74,65,67,62,59,85,69,43,29.65,29.50,7,2,7,0.00
2013-12-14,82,72,66,67,63,58,90,75,50,29.79,29.53,12,2,12,0.00
2013-12-15,81,71,65,63,60,56,86,70,46,29.82,29.71,5,1,5,0.00
2013-12-16,80,72,66,63,60,58,84,68,52,29.91,29.79,8,1,8,0.00
2013-12-17,81,72,64,61,58,53,81,65,42,29.91,29.79,6,1,6,0.00
2013-12-18,83,72,65,63,58,54,82,62,40,29.94,29.85,7,1,7,0.00
2013-12-19,84,74,64,62,59,56,78,61,45,29.91,29.76,8,2,8,0.00
2013-12-20,105,83,66,63,60,55,80,50,21,29.76,29.56,8,2,8,0.00
2013-12-21,83,76,71,67,64,57,86,66,41,29.74,29.56,13,2,13,0.00
2013-12-22,99,82,71,71,66,58,89,63,36,29.74,29.47,6,1,6,0.00
2013-12-23,96,84,73,67,58,52,77,44,27,29.59,29.41,11,6,11,0.00
2013-12-24,73,68,66,67,66,64,98,93,76,29.79,29.59,8,4,8,0.25
2013-12-25,70,69,68,68,66,65,95,92,86,29.79,29.65,8,2,8,0.49
2013-12-26,79,72,68,67,64,60,97,80,54,29.65,29.53,10,3,10,0.25
2013-12-27,81,72,66,64,62,59,84,72,51,29.65,29.53,6,2,6,0.25
2013-12-28,82,73,66,66,63,60,88,71,55,29.65,29.41,6,2,6,0.25
2013-12-29,75,70,66,66,60,52,81,69,51,29.74,29.32,15,4,15,0.25
2013-12-30,65,64,64,55,53,52,71,68,65,29.74,29.68,2,2,2,0.00
2013-12-31,83,75,65,66,61,57,92,63,44,29.74,29.56,2,0,2,0.00
2014-1-1,84,74,66,66,62,59,86,68,45,29.74,29.53,0,0,0,0.00
2014-1-2,101,82,72,68,60,48,81,53,20,29.47,29.29,0,0,0,0.00